Wind_Speed
45 47 49 55 60 58 55 35 44 44 36 34 41 49 41 35 33 35 33 33 34 37 36 37 37 40 42 38 37 37 36 35 36 36 35 33 32 31 30 30 31 32 32 32
46 50 55 60 55 55 54 51 48 38 36 32 43 53 48 45 47 45 38 37 35 27 31 36 37 36 36 35 36 35 33 34 35 35 34 34 33 32 33 34 32 32 32 33
47 57 54 55 50 48 55 47 53 46 25 30 41 50 47 47 46 45 43 41 41 39 37 36 37 35 33 34 33 33 34 34 34 34 35 35 36 36 35 32 32 32 34 35
39 51 48 55 57 48 48 54 55 43 31 34 30 17 38 45 48 47 49 47 45 41 36 36 38 38 35 34 34 36 36 36 36 35 36 36 35 35 33 33 35 37 36 33
28 26 38 50 52 51 51 47 44 38 40 38 30 21 36 35 43 51 45 51 48 45 46 45 44 42 39 38 40 41 41 39 37 38 38 37 36 36 35 37 38 36 33 34
51 52 30 40 53 45 44 37 36 39 35 22 44 34 44 37 48 44 46 48 45 41 35 37 46 49 49 46 47 48 48 45 41 41 40 39 38 39 38 37 36 35 35 34
40 52 51 44 37 28 42 35 10 14 17 14 32 26 43 8 26 33 31 29 32 31 35 40 39 37 43 44 47 48 48 48 48 45 43 41 40 40 38 37 37 36 35 33
14 16 36 39 49 36 32 44 16 12 4 6 25 12 34 47 44 39 41 36 36 36 34 34 37 37 42 44 47 48 46 46 47 47 45 44 43 41 39 38 37 37 34 33
8 11 10 24 30 41 23 38 41 11 3 3 9 17 31 37 36 30 31 33 36 39 39 39 43 41 43 43 46 46 45 45 43 44 46 46 45 42 39 37 37 35 34 33
14 18 13 15 12 26 39 32 18 9 12 13 6 9 15 27 32 35 37 43 43 37 37 41 41 44 45 47 49 48 47 45 43 40 42 43 42 40 39 37 35 34 33 33
28 11 9 17 24 28 27 31 24 20 10 3 2 8 30 39 25 25 33 36 34 31 35 39 39 42 43 41 43 47 47 45 42 41 41 40 40 38 35 34 34 33 33 33
17 11 7 5 13 26 30 33 35 14 6 10 11 13 28 26 34 35 26 24 33 28 23 27 31 31 36 38 40 44 45 43 40 37 37 36 35 34 32 32 31 31 31 32
19 10 8 4 4 10 22 30 32 30 12 20 4 12 22 27 30 23 18 14 15 16 16 16 22 23 29 34 36 40 40 36 35 35 33 33 32 31 29 30 31 31 31 32
11 13 10 7 11 8 8 9 20 31 16 20 21 36 33 31 26 17 14 17 20 20 16 16 18 22 27 31 33 33 33 33 33 32 31 30 30 29 28 29 29 31 33 33
19 12 15 16 14 9 10 11 10 12 27 14 19 27 26 31 32 28 26 19 14 9 15 18 18 20 25 25 29 30 31 31 31 30 28 27 26 27 29 31 32 34 33 33
17 12 22 17 9 7 9 9 12 12 15 20 21 23 26 29 38 22 16 17 15 12 13 13 14 19 23 25 25 26 26 27 27 26 26 25 25 26 29 31 30 31 31 32
22 10 14 5 11 9 4 12 7 2 4 3 4 8 9 12 11 14 16 18 15 14 15 18 15 18 22 24 26 30 32 29 26 24 23 23 26 27 27 28 28 26 26 27
22 15 11 7 9 3 3 5 6 10 12 8 4 8 13 12 8 7 7 8 10 11 17 17 19 19 22 24 26 29 23 22 21 19 21 21 21 23 23 23 24 25 25 25
10 10 6 3 2 4 6 8 7 4 13 12 12 10 11 10 10 14 16 14 10 11 14 16 20 21 22 25 26 25 24 23 21 20 17 17 19 21 23 23 23 23 22 23
8 10 12 3 1 2 6 6 3 2 13 13 14 14 14 11 9 8 7 11 16 14 15 22 24 23 24 26 28 26 26 24 21 26 25 18 20 22 22 22 23 21 21 23
5 1 9 14 2 3 9 8 3 3 6 11 15 15 14 14 11 7 6 2 4 9 15 21 28 28 27 27 26 25 25 25 26 20 16 16 18 18 18 18 17 18 19 20
12 5 6 4 4 2 12 9 6 7 8 12 13 13 13 13 12 9 6 5 4 4 4 15 26 28 28 27 27 28 30 27 21 15 13 12 14 14 15 17 17 19 20 21
8 11 6 5 5 5 8 10 9 9 12 11 12 12 12 11 12 11 8 4 4 2 2 7 14 19 20 20 22 21 20 19 16 14 13 14 15 16 18 19 19 19 20 21
7 9 5 3 6 3 6 12 12 13 13 12 13 13 13 12 10 9 8 6 4 4 3 5 9 12 15 17 18 18 11 7 9 10 12 12 13 15 16 16 17 18 20 21
10 8 5 6 8 7 8 10 10 11 12 13 13 13 13 12 11 10 8 7 7 6 5 6 8 12 14 11 6 5 7 8 9 9 10 12 12 12 13 14 15 15 16 16
7 8 8 8 10 10 10 11 11 12 11 8 7 9 12 13 12 11 10 9 7 7 8 8 6 4 3 5 8 10 11 10 10 10 10 10 11 12 12 13 14 14 14 15
Wind_Direction
232 230 230 231 231 236 234 236 245 251 244 240 244 255 253 253 253 251 251 258 256 247 250 243 242 241 245 248 245 245 248 250 251 251 251 252 255 257 252 249 251 257 261 264
231 227 229 237 234 235 237 235 237 250 248 243 250 255 256 254 254 254 249 250 248 242 237 237 236 237 239 242 245 246 248 249 251 251 251 252 250 246 244 247 252 261 263 263
232 238 237 231 228 229 235 231 240 239 238 244 244 254 248 248 251 253 248 239 239 241 235 235 237 238 237 237 243 249 251 252 252 251 249 248 245 243 248 254 262 264 259 261
260 242 233 232 230 227 232 235 241 242 236 242 239 261 255 255 254 250 251 243 237 239 240 234 235 238 242 250 253 253 251 250 249 250 251 250 249 251 253 257 256 254 257 260
239 234 240 230 230 226 232 238 234 237 240 246 238 247 259 261 256 249 247 250 251 249 248 244 242 245 250 249 258 257 253 252 251 250 249 247 249 249 255 257 257 258 257 257
247 244 256 228 238 232 242 232 238 237 230 228 234 224 260 242 251 253 248 251 254 254 251 252 247 248 250 252 249 248 248 251 250 249 249 248 248 250 255 258 258 256 255 256
237 248 248 253 258 223 215 212 214 217 221 238 232 212 234 229 250 261 260 253 254 254 249 245 245 245 240 238 239 241 244 246 246 247 248 249 248 251 254 254 253 252 253 255
237 273 250 240 240 235 224 203 200 218 205 230 242 219 244 256 262 264 265 264 264 262 255 249 241 238 236 237 239 240 244 247 246 246 246 247 248 252 251 250 250 250 251 253
304 257 235 235 248 216 214 212 220 250 193 136 203 231 242 252 260 264 262 260 262 263 263 257 253 246 235 237 240 246 252 252 249 247 245 244 245 246 246 245 245 247 249 251
315 311 283 233 201 228 225 235 239 231 223 232 229 220 229 258 272 262 260 273 274 270 258 254 254 246 242 241 244 246 246 249 250 246 245 243 241 240 240 240 242 245 248 253
328 294 318 217 202 208 208 225 228 246 219 182 201 234 253 264 272 280 269 266 264 258 254 248 248 248 245 244 241 242 243 247 250 250 243 237 236 236 236 238 242 246 251 256
324 304 295 292 211 216 228 215 208 208 211 216 238 263 260 249 255 274 280 279 256 273 264 246 243 245 236 236 240 241 242 247 248 240 233 231 230 231 234 238 244 251 256 258
329 317 307 301 130 186 214 219 223 228 231 227 163 263 254 262 269 253 251 274 288 296 282 276 249 240 237 235 236 240 241 238 231 227 225 225 227 230 236 243 248 253 256 257
309 261 303 300 310 321 315 322 225 227 234 233 231 254 260 267 273 277 280 266 277 261 272 265 265 247 238 237 232 230 228 220 217 216 218 219 222 230 240 249 256 258 259 258
329 325 320 327 317 297 308 310 301 271 253 260 250 249 270 267 257 260 255 262 256 274 239 228 222 252 247 233 228 218 211 209 209 208 213 221 230 239 247 253 258 260 259 257
323 304 316 320 331 282 291 299 282 275 274 270 275 282 274 275 283 280 251 248 257 278 283 265 241 223 222 225 208 205 206 206 206 209 217 227 239 248 254 257 259 259 257 255
300 308 322 294 348 334 72 13 27 132 0 304 305 278 279 272 257 271 294 277 259 268 280 271 243 222 208 204 202 204 199 200 208 219 231 245 253 257 259 257 253 253 255 252
277 282 297 303 319 33 92 22 75 63 50 41 346 303 295 289 278 287 286 276 262 248 245 246 239 206 202 200 205 217 211 209 218 230 246 253 257 260 260 260 258 255 253 250
242 263 271 289 281 139 27 1 20 112 36 26 18 10 349 325 293 263 260 262 268 251 235 213 212 201 204 201 200 207 211 215 222 238 244 256 258 259 259 257 257 255 255 254
234 241 224 248 97 45 7 342 335 158 33 19 10 1 357 348 335 296 286 261 250 250 242 217 202 203 205 207 210 212 219 228 244 257 244 244 252 254 255 257 255 258 261 260
38 152 228 242 103 68 353 352 343 56 328 14 11 8 3 4 352 317 289 307 273 248 233 227 213 205 207 211 217 222 228 237 250 246 251 252 254 253 255 258 261 264 262 262
29 14 24 35 84 37 26 38 67 28 359 356 358 358 7 9 3 351 314 297 298 317 262 227 221 214 214 214 220 230 237 243 242 242 244 247 251 261 265 267 269 268 267 267
36 54 41 55 86 82 37 38 26 3 350 349 352 354 356 359 1 1 350 328 321 296 254 216 215 220 223 230 235 237 237 233 229 230 235 249 258 262 266 268 270 271 269 267
39 50 74 85 60 21 359 355 345 339 330 332 334 334 338 342 341 343 347 342 326 293 251 213 206 212 221 226 230 227 207 206 223 235 245 257 268 270 269 271 271 270 270 269
47 38 61 40 9 358 342 336 333 334 327 321 318 322 324 321 321 323 317 314 306 289 269 246 235 226 217 207 192 204 226 236 243 251 254 254 257 263 268 270 271 272 272 273
36 25 15 340 338 333 326 327 321 322 325 324 329 337 340 336 323 309 304 296 286 284 273 248 236 227 217 216 215 219 220 223 231 243 258 265 270 271 274 276 277 276 277 278
Height
2971 2975 2969 2969 2972 2975 2983 2987 2989 2991 2998 3002 2996 2990 2996 3004 3006 3007 3010 3013 3015 3018 3025 3026 3030 3033 3036 3039 3042 3044 3047 3049 3051 3053 3055 3057 3059 3061 3063 3065 3066 3067 3068 3069
2959 2953 2957 2959 2967 2972 2974 2977 2978 2983 2990 2994 2988 2980 2987 2992 2994 2997 3001 3003 3007 3010 3014 3016 3019 3023 3027 3031 3033 3036 3039 3041 3042 3044 3047 3049 3051 3052 3054 3056 3058 3060 3061 3061
2944 2942 2947 2952 2958 2961 2962 2967 2970 2975 2981 2983 2983 2973 2976 2978 2984 2987 2989 2993 2997 3000 3005 3008 3010 3014 3018 3021 3025 3028 3030 3032 3034 3036 3037 3040 3041 3042 3045 3049 3052 3052 3052 3053
2929 2931 2937 2942 2944 2954 2951 2958 2963 2971 2976 2970 2976 2961 2966 2968 2973 2978 2976 2982 2987 2991 2995 2999 3002 3005 3010 3014 3016 3018 3020 3022 3024 3027 3028 3031 3034 3036 3040 3042 3041 3041 3044 3045
2918 2921 2926 2929 2928 2938 2942 2952 2957 2964 2966 2967 2966 2963 2950 2960 2960 2962 2965 2971 2977 2983 2986 2988 2992 2995 3000 3003 3007 3008 3010 3014 3016 3018 3020 3022 3025 3027 3030 3032 3033 3034 3036 3037
2907 2911 2914 2918 2926 2933 2940 2947 2952 2955 2955 2948 2948 2956 2932 2949 2945 2951 2958 2962 2966 2970 2973 2976 2981 2987 2988 2992 2994 2997 3000 3003 3007 3008 3011 3013 3016 3017 3020 3023 3025 3026 3027 3028
2901 2900 2908 2914 2918 2923 2928 2936 2939 2940 2939 2930 2936 2943 2930 2934 2940 2944 2948 2952 2954 2958 2960 2963 2967 2970 2973 2977 2980 2983 2987 2991 2996 2998 3001 3004 3007 3008 3011 3013 3015 3017 3019 3020
2896 2894 2897 2899 2902 2914 2917 2920 2921 2928 2929 2925 2929 2926 2921 2930 2936 2939 2940 2941 2944 2945 2948 2950 2953 2957 2962 2967 2969 2972 2976 2981 2985 2988 2992 2994 2997 3000 3002 3004 3006 3008 3011 3012
2898 2892 2889 2889 2895 2904 2911 2910 2915 2919 2917 2919 2919 2920 2922 2923 2927 2929 2929 2931 2933 2935 2937 2938 2941 2944 2950 2956 2959 2964 2968 2972 2975 2979 2981 2983 2986 2990 2993 2995 2997 2999 3001 3004
2899 2890 2885 2886 2892 2898 2902 2909 2913 2911 2909 2910 2913 2913 2913 2914 2918 2921 2921 2920 2921 2923 2924 2926 2928 2932 2938 2944 2949 2954 2958 2962 2965 2968 2971 2974 2977 2980 2983 2986 2988 2990 2992 2996
2895 2890 2886 2884 2884 2885 2895 2900 2906 2910 2908 2913 2923 2909 2909 2907 2908 2909 2912 2913 2910 2910 2911 2913 2917 2923 2928 2932 2937 2943 2947 2951 2954 2958 2961 2964 2968 2971 2974 2977 2980 2982 2984 2986
2896 2889 2884 2880 2879 2884 2889 2890 2895 2900 2901 2903 2902 2895 2898 2900 2900 2903 2905 2903 2902 2904 2904 2906 2908 2911 2916 2922 2927 2933 2938 2942 2945 2948 2953 2957 2961 2964 2967 2969 2972 2974 2975 2978
2892 2889 2885 2880 2879 2883 2886 2887 2890 2892 2893 2895 2897 2891 2894 2897 2895 2897 2898 2898 2897 2897 2898 2900 2901 2904 2908 2914 2919 2924 2928 2931 2935 2941 2945 2950 2954 2957 2960 2962 2964 2966 2967 2969
2892 2888 2887 2886 2884 2884 2882 2881 2884 2889 2890 2888 2889 2885 2891 2894 2893 2892 2893 2893 2894 2894 2894 2895 2897 2900 2903 2907 2911 2915 2919 2924 2929 2934 2940 2944 2948 2951 2954 2955 2956 2958 2960 2961
2892 2887 2886 2884 2882 2882 2882 2881 2882 2883 2884 2885 2884 2886 2887 2887 2887 2888 2889 2889 2889 2887 2887 2889 2892 2896 2899 2901 2905 2908 2913 2919 2925 2929 2934 2938 2941 2944 2946 2948 2948 2950 2951 2951
2891 2888 2886 2881 2879 2879 2879 2879 2879 2880 2881 2880 2881 2881 2881 2880 2879 2880 2881 2883 2884 2883 2883 2883 2883 2887 2890 2894 2900 2906 2911 2916 2922 2926 2930 2933 2935 2937 2939 2940 2940 2941 2942 2942
2890 2888 2886 2880 2877 2876 2879 2879 2879 2880 2880 2878 2877 2877 2875 2875 2874 2874 2875 2875 2877 2879 2880 2879 2881 2885 2888 2893 2897 2901 2904 2911 2916 2920 2923 2927 2928 2930 2931 2932 2933 2933 2933 2934
2883 2886 2886 2882 2881 2884 2883 2881 2881 2881 2880 2879 2877 2875 2873 2872 2871 2871 2871 2871 2873 2873 2876 2878 2879 2881 2885 2890 2895 2899 2903 2907 2910 2914 2918 2919 2921 2922 2924 2925 2925 2927 2926 2927
2883 2885 2884 2883 2882 2884 2883 2882 2882 2881 2882 2879 2876 2875 2872 2869 2868 2868 2868 2869 2870 2870 2871 2873 2877 2880 2884 2888 2892 2896 2901 2904 2907 2909 2911 2912 2914 2915 2917 2919 2919 2920 2920 2920
2881 2882 2885 2883 2882 2885 2886 2883 2883 2883 2883 2880 2878 2875 2872 2870 2868 2867 2866 2865 2866 2867 2867 2869 2873 2877 2881 2886 2890 2891 2896 2898 2900 2902 2903 2904 2907 2909 2910 2911 2912 2911 2911 2913
2880 2880 2881 2882 2883 2887 2886 2884 2882 2884 2890 2881 2879 2876 2874 2871 2870 2868 2866 2864 2864 2864 2864 2866 2869 2873 2876 2880 2884 2887 2889 2892 2894 2896 2896 2898 2901 2902 2903 2904 2903 2903 2904 2905
2883 2882 2882 2882 2884 2889 2886 2886 2885 2888 2885 2883 2881 2879 2876 2874 2871 2868 2866 2865 2864 2864 2863 2864 2867 2870 2872 2875 2878 2881 2884 2886 2887 2889 2890 2892 2895 2895 2896 2897 2897 2898 2898 2898
2888 2888 2887 2887 2889 2889 2888 2888 2887 2886 2885 2883 2881 2879 2877 2875 2873 2870 2868 2866 2864 2864 2864 2864 2866 2869 2872 2874 2876 2878 2879 2881 2882 2884 2885 2887 2888 2889 2890 2891 2892 2891 2891 2891
2890 2889 2889 2891 2892 2891 2890 2889 2887 2886 2885 2883 2880 2878 2876 2874 2873 2871 2869 2867 2866 2865 2864 2865 2866 2867 2869 2870 2872 2873 2874 2876 2878 2879 2881 2882 2883 2885 2885 2884 2884 2884 2884 2883
2893 2892 2892 2892 2891 2890 2889 2888 2886 2884 2882 2880 2878 2877 2875 2873 2871 2869 2868 2867 2866 2865 2864 2864 2865 2866 2867 2867 2868 2870 2871 2872 2873 2874 2876 2878 2878 2878 2878 2878 2878 2877 2877 2877
2895 2894 2894 2893 2891 2889 2888 2886 2884 2882 2881 2879 2877 2875 2873 2871 2869 2867 2866 2865 2864 2863 2862 2862 2862 2862 2864 2866 2867 2868 2869 2870 2871 2872 2872 2872 2872 2872 2872 2872 2872 2872 2872 2872